Location: Contre
(49.7477°N, 2.0963°E)
Time: 21:12:42
(UTC+00:00)

CZ-6A DEB - Visible Passes

Search period start: 26 February 2024 00:00
Search period end: 07 March 2024 00:00
Orbit: 762 x 1048 km, 99.0° (Epoch: 26 February)

Date Brightness Start Highest point End Pass type
(mag) Time Alt. Az. Time Alt. Az. Time Alt. Az.
26 Feb ? 05:44:09 10° NNE 05:49:28 60° ESE 05:54:29 10° S visible
27 Feb ? 05:48:22 10° NNE 05:53:41 65° ESE 05:58:43 10° S visible
28 Feb ? 04:14:28 10° ENE 04:14:56 10° E 04:15:22 10° E visible
28 Feb ? 05:52:34 10° NNE 05:57:53 71° ESE 06:02:55 10° S visible
29 Feb ? 04:17:45 10° ENE 04:19:12 11° E 04:20:38 10° E visible
29 Feb ? 05:56:46 10° NNE 06:02:04 76° ESE 06:07:07 10° S visible
01 Mar ? 04:21:28 10° ENE 04:23:27 12° E 04:25:24 10° ESE visible
01 Mar ? 06:00:58 10° NNE 06:06:15 82° ESE 06:11:18 10° SSW visible
02 Mar ? 04:25:18 10° ENE 04:27:42 13° E 04:30:03 10° ESE visible
03 Mar ? 04:29:11 10° NE 04:31:55 14° E 04:34:35 10° ESE visible
04 Mar ? 04:33:08 10° NE 04:36:08 15° E 04:39:05 10° SE visible
05 Mar ? 04:37:05 10° NE 04:40:20 17° E 04:43:31 10° SE visible
06 Mar ? 04:41:03 10° NE 04:44:30 18° E 04:47:55 10° SE visible
